Total_Precipitation_Accumulation
0.28 0.30 0.30 0.32 0.31 0.26 0.23 0.23 0.25 0.29 0.32 0.34 0.31 0.30 0.36 0.37 0.53 0.41 0.18 0.08 0.03 0.01 0.00 0.00 0.01 0.00 0.00 0.00 0.00 0.00 0.00 0.01 0.02 0.03 0.06 0.08 0.06 0.04 0.03 0.04 0.03 0.05 0.07 0.13 0.18 0.22 0.28 0.28 0.28 0.32 0.35 0.36 0.36 0.59 0.80 0.86 1.20 1.28 1.69 1.79 1.89 1.80 2.07 2.43 2.28 2.48 2.49 2.31 1.93 1.81 1.61 1.74 1.96 2.22
0.29 0.31 0.32 0.33 0.33 0.29 0.31 0.32 0.28 0.29 0.33 0.38 0.39 0.37 0.34 0.35 0.50 0.41 0.30 0.17 0.05 0.03 0.01 0.00 0.00 0.01 0.00 0.00 0.00 0.01 0.01 0.01 0.02 0.04 0.04 0.05 0.04 0.03 0.02 0.02 0.03 0.02 0.02 0.05 0.10 0.15 0.20 0.27 0.27 0.25 0.24 0.32 0.32 0.38 0.58 0.73 1.10 1.49 1.48 1.67 1.87 1.64 1.65 1.82 2.13 2.12 2.10 2.24 2.21 1.76 1.57 1.57 1.72 1.90
0.29 0.33 0.34 0.32 0.33 0.31 0.33 0.35 0.35 0.37 0.40 0.44 0.41 0.36 0.32 0.33 0.38 0.42 0.37 0.36 0.14 0.03 0.04 0.02 0.00 0.00 0.01 0.01 0.00 0.01 0.01 0.01 0.02 0.03 0.03 0.03 0.03 0.03 0.02 0.02 0.02 0.02 0.01 0.02 0.03 0.09 0.15 0.23 0.28 0.28 0.26 0.26 0.31 0.32 0.37 0.52 0.77 1.10 1.39 1.56 1.72 1.83 1.51 1.73 1.66 1.99 1.93 2.01 2.07 1.92 1.67 1.50 1.54 1.72
0.22 0.26 0.31 0.31 0.32 0.34 0.40 0.42 0.42 0.43 0.44 0.47 0.55 0.53 0.44 0.39 0.34 0.40 0.50 0.48 0.26 0.05 0.02 0.03 0.04 0.03 0.02 0.03 0.02 0.01 0.01 0.01 0.02 0.03 0.03 0.03 0.03 0.03 0.03 0.02 0.02 0.01 0.01 0.01 0.02 0.03 0.08 0.15 0.26 0.27 0.28 0.26 0.29 0.28 0.34 0.36 0.50 0.86 1.00 1.55 1.67 1.83 1.62 1.53 1.60 1.72 1.87 2.06 2.05 1.95 1.79 1.61 1.57 1.72
0.18 0.23 0.28 0.28 0.28 0.33 0.45 0.47 0.45 0.46 0.49 0.53 0.61 0.64 0.62 0.54 0.38 0.39 0.48 0.48 0.30 0.10 0.06 0.04 0.06 0.09 0.11 0.11 0.07 0.03 0.01 0.01 0.02 0.02 0.03 0.03 0.04 0.04 0.03 0.02 0.02 0.01 0.01 0.01 0.01 0.01 0.04 0.08 0.18 0.26 0.36 0.32 0.33 0.30 0.32 0.32 0.34 0.45 0.64 0.91 1.45 1.69 1.84 1.50 1.38 1.55 1.75 1.76 2.08 2.14 2.14 1.85 1.65 1.69
0.13 0.19 0.23 0.22 0.22 0.24 0.37 0.44 0.45 0.44 0.46 0.54 0.64 0.65 0.69 0.65 0.48 0.38 0.52 0.52 0.38 0.21 0.16 0.05 0.08 0.11 0.13 0.19 0.15 0.08 0.03 0.02 0.02 0.02 0.02 0.03 0.03 0.03 0.03 0.02 0.01 0.01 0.01 0.01 0.00 0.02 0.02 0.05 0.09 0.32 0.29 0.33 0.36 0.32 0.31 0.30 0.28 0.35 0.42 0.55 1.00 1.49 1.86 1.76 1.45 1.35 1.42 1.70 1.97 2.15 2.17 1.97 1.76 1.63
0.15 0.17 0.17 0.19 0.20 0.22 0.29 0.30 0.34 0.41 0.50 0.51 0.58 0.61 0.60 0.62 0.51 0.40 0.47 0.61 0.56 0.28 0.12 0.07 0.13 0.15 0.18 0.20 0.20 0.14 0.07 0.03 0.03 0.03 0.03 0.02 0.02 0.02 0.02 0.02 0.01 0.01 0.01 0.01 0.00 0.01 0.01 0.01 0.05 0.11 0.26 0.30 0.34 0.31 0.32 0.32 0.28 0.28 0.29 0.35 0.61 0.93 1.50 1.92 1.69 1.42 1.29 1.33 1.69 1.86 1.93 2.15 1.91 1.85
0.19 0.19 0.21 0.18 0.21 0.25 0.29 0.29 0.30 0.32 0.41 0.52 0.61 0.59 0.57 0.64 0.60 0.47 0.47 0.61 0.65 0.43 0.26 0.14 0.11 0.15 0.21 0.23 0.22 0.19 0.15 0.12 0.08 0.07 0.05 0.03 0.03 0.02 0.02 0.01 0.01 0.01 0.00 0.00 0.00 0.00 0.00 0.00 0.01 0.05 0.15 0.24 0.29 0.31 0.29 0.29 0.27 0.23 0.22 0.33 0.37 0.63 0.94 1.81 1.96 1.72 1.39 1.30 1.36 1.66 1.79 1.97 2.10 1.86
0.20 0.21 0.20 0.21 0.23 0.24 0.26 0.27 0.32 0.30 0.30 0.34 0.43 0.48 0.49 0.56 0.55 0.55 0.61 0.67 0.67 0.61 0.44 0.24 0.15 0.15 0.22 0.28 0.26 0.22 0.23 0.22 0.19 0.15 0.11 0.08 0.06 0.03 0.02 0.02 0.01 0.01 0.01 0.00 0.00 0.00 0.00 0.01 0.00 0.03 0.07 0.16 0.23 0.28 0.27 0.26 0.24 0.24 0.23 0.24 0.32 0.49 0.58 0.89 1.68 1.96 1.72 1.33 1.36 1.36 1.56 1.69 2.17 1.97
0.22 0.25 0.25 0.23 0.26 0.27 0.30 0.32 0.30 0.30 0.33 0.37 0.43 0.47 0.49 0.50 0.54 0.57 0.53 0.56 0.65 0.62 0.43 0.27 0.23 0.25 0.28 0.32 0.34 0.29 0.25 0.26 0.25 0.22 0.18 0.13 0.10 0.08 0.06 0.03 0.02 0.01 0.01 0.01 0.01 0.00 0.00 0.00 0.00 0.00 0.05 0.08 0.17 0.26 0.26 0.25 0.21 0.26 0.23 0.24 0.27 0.44 0.58 0.68 0.87 1.60 1.81 1.67 1.21 1.42 1.45 1.52 1.65 1.85
0.25 0.26 0.29 0.30 0.30 0.33 0.39 0.41 0.44 0.44 0.41 0.42 0.44 0.46 0.58 0.58 0.49 0.45 0.43 0.46 0.53 0.58 0.48 0.35 0.25 0.28 0.27 0.29 0.33 0.32 0.32 0.29 0.26 0.25 0.22 0.19 0.15 0.11 0.09 0.07 0.04 0.02 0.02 0.01 0.01 0.01 0.00 0.00 0.01 0.00 0.02 0.06 0.10 0.20 0.23 0.25 0.23 0.22 0.25 0.30 0.27 0.35 0.50 0.60 0.60 0.86 1.49 1.68 1.77 1.26 1.38 1.62 1.57 1.49
0.26 0.28 0.31 0.32 0.34 0.38 0.45 0.50 0.48 0.48 0.53 0.57 0.69 0.61 0.49 0.47 0.51 0.49 0.45 0.43 0.45 0.47 0.44 0.39 0.33 0.25 0.30 0.34 0.32 0.36 0.51 0.57 0.42 0.28 0.25 0.23 0.17 0.13 0.10 0.08 0.08 0.06 0.05 0.03 0.02 0.02 0.03 0.02 0.01 0.00 0.01 0.01 0.05 0.12 0.21 0.23 0.25 0.23 0.24 0.30 0.33 0.31 0.40 0.36 0.49 0.59 0.85 1.29 1.56 1.65 1.46 1.49 1.49 1.56
0.21 0.21 0.27 0.34 0.38 0.39 0.39 0.40 0.42 0.46 0.57 0.68 0.84 0.56 0.49 0.58 0.62 0.57 0.50 0.47 0.41 0.40 0.37 0.38 0.38 0.43 0.42 0.43 0.45 0.50 0.52 0.57 0.43 0.25 0.22 0.23 0.18 0.15 0.13 0.11 0.11 0.13 0.14 0.10 0.06 0.03 0.03 0.04 0.03 0.03 0.02 0.01 0.02 0.05 0.15 0.21 0.24 0.25 0.24 0.27 0.29 0.34 0.37 0.38 0.41 0.44 0.59 0.79 1.13 1.40 1.62 1.78 1.57 1.58
0.20 0.18 0.19 0.25 0.30 0.33 0.33 0.35 0.39 0.44 0.47 0.63 0.62 0.64 0.71 0.74 0.72 0.64 0.57 0.55 0.48 0.41 0.41 0.37 0.44 0.46 0.43 0.42 0.44 0.44 0.37 0.34 0.35 0.40 0.40 0.36 0.29 0.27 0.23 0.19 0.17 0.16 0.18 0.17 0.15 0.09 0.04 0.03 0.03 0.06 0.03 0.04 0.02 0.03 0.07 0.14 0.20 0.24 0.24 0.26 0.33 0.34 0.28 0.35 0.33 0.39 0.44 0.65 0.75 1.06 1.28 1.66 1.91 1.76
0.17 0.19 0.17 0.16 0.19 0.21 0.19 0.22 0.27 0.32 0.47 0.54 0.45 0.48 0.61 0.70 0.83 0.85 0.72 0.52 0.56 0.55 0.48 0.50 0.61 0.62 0.57 0.51 0.46 0.50 0.51 0.48 0.53 0.44 0.41 0.43 0.48 0.47 0.38 0.32 0.25 0.20 0.20 0.19 0.17 0.13 0.08 0.07 0.04 0.02 0.02 0.16 0.16 0.02 0.03 0.08 0.32 0.25 0.21 0.21 0.25 0.28 0.24 0.27 0.33 0.35 0.42 0.47 0.64 0.77 0.98 1.26 1.52 1.93
0.18 0.16 0.16 0.14 0.14 0.16 0.16 0.18 0.23 0.33 0.43 0.34 0.34 0.38 0.51 0.59 0.64 0.68 0.88 0.76 0.57 0.57 0.59 0.57 0.66 0.78 0.72 0.62 0.54 0.59 0.69 0.65 0.63 0.60 0.55 0.54 0.56 0.53 0.44 0.30 0.25 0.20 0.18 0.19 0.20 0.16 0.14 0.09 0.06 0.04 0.02 0.01 0.01 0.01 0.03 0.03 0.08 0.16 0.23 0.22 0.21 0.25 0.25 0.23 0.31 0.38 0.39 0.44 0.58 0.64 0.77 0.95 1.19 1.45
0.15 0.14 0.13 0.13 0.14 0.13 0.13 0.14 0.26 0.45 0.37 0.26 0.25 0.31 0.42 0.47 0.49 0.55 0.62 0.65 0.64 0.66 0.67 0.60 0.52 0.57 0.67 0.62 0.56 0.64 0.73 0.72 0.72 0.63 0.61 0.53 0.50 0.50 0.45 0.37 0.26 0.25 0.25 0.28 0.32 0.25 0.17 0.13 0.09 0.06 0.02 0.03 0.01 0.00 0.00 0.02 0.04 0.10 0.19 0.26 0.23 0.25 0.22 0.24 0.25 0.37 0.37 0.43 0.54 0.64 0.63 0.78 1.03 1.13
0.15 0.16 0.20 0.18 0.17 0.18 0.16 0.19 0.38 0.46 0.32 0.22 0.21 0.29 0.39 0.41 0.40 0.44 0.49 0.58 0.57 0.58 0.69 0.65 0.61 0.54 0.62 0.62 0.56 0.66 0.74 0.76 0.80 0.63 0.58 0.47 0.47 0.50 0.46 0.42 0.42 0.43 0.48 0.44 0.41 0.33 0.22 0.16 0.13 0.09 0.05 0.03 0.02 0.01 0.00 0.01 0.02 0.05 0.13 0.20 0.25 0.23 0.22 0.23 0.26 0.32 0.37 0.41 0.43 0.57 0.66 0.71 0.85 1.10
0.16 0.15 0.15 0.19 0.21 0.25 0.19 0.23 0.39 0.48 0.35 0.23 0.21 0.27 0.34 0.40 0.39 0.41 0.47 0.53 0.58 0.65 0.66 0.68 0.66 0.61 0.58 0.61 0.55 0.58 0.65 0.74 0.83 0.86 0.68 0.55 0.51 0.58 0.74 0.55 0.49 0.49 0.47 0.44 0.47 0.45 0.25 0.18 0.14 0.11 0.08 0.06 0.04 0.02 0.01 0.01 0.02 0.03 0.07 0.14 0.20 0.24 0.22 0.22 0.25 0.30 0.37 0.41 0.45 0.45 0.55 0.72 0.72 0.97
0.12 0.10 0.13 0.18 0.21 0.28 0.21 0.28 0.37 0.41 0.34 0.19 0.20 0.22 0.26 0.34 0.35 0.39 0.45 0.51 0.58 0.70 0.82 0.81 0.78 0.82 0.74 0.74 0.74 0.73 0.73 0.75 0.80 0.77 0.65 0.63 0.66 0.64 0.63 0.54 0.42 0.38 0.43 0.41 0.40 0.32 0.28 0.23 0.16 0.13 0.12 0.11 0.10 0.07 0.04 0.01 0.01 0.02 0.05 0.09 0.15 0.21 0.22 0.21 0.21 0.24 0.29 0.38 0.45 0.42 0.48 0.60 0.71 0.77
0.12 0.12 0.15 0.19 0.28 0.32 0.27 0.33 0.39 0.39 0.31 0.21 0.21 0.22 0.24 0.30 0.31 0.33 0.37 0.42 0.46 0.51 0.56 0.62 0.65 0.67 0.71 0.71 0.68 0.68 0.66 0.73 0.86 0.95 0.89 0.68 0.51 0.53 0.56 0.45 0.41 0.35 0.38 0.41 0.37 0.27 0.24 0.20 0.18 0.19 0.18 0.15 0.13 0.12 0.09 0.05 0.03 0.02 0.03 0.06 0.10 0.16 0.20 0.22 0.21 0.22 0.25 0.31 0.40 0.46 0.48 0.56 0.62 0.75
0.12 0.11 0.11 0.16 0.32 0.35 0.31 0.30 0.38 0.34 0.41 0.21 0.21 0.21 0.22 0.24 0.26 0.26 0.29 0.35 0.39 0.45 0.49 0.58 0.63 0.65 0.77 0.79 0.67 0.67 0.74 0.77 0.87 0.85 0.77 0.70 0.66 0.63 0.51 0.49 0.39 0.38 0.41 0.49 0.41 0.35 0.24 0.23 0.21 0.22 0.23 0.22 0.20 0.15 0.13 0.11 0.08 0.04 0.04 0.04 0.06 0.09 0.15 0.20 0.22 0.21 0.22 0.27 0.31 0.40 0.50 0.51 0.60 0.73
0.11 0.12 0.12 0.14 0.26 0.30 0.29 0.27 0.31 0.30 0.26 0.19 0.20 0.27 0.27 0.27 0.26 0.26 0.28 0.30 0.34 0.34 0.36 0.44 0.55 0.62 0.72 0.85 0.73 0.67 0.70 0.74 0.75 0.82 0.74 0.59 0.63 0.68 0.61 0.68 0.70 0.64 0.58 0.54 0.61 0.48 0.33 0.34 0.32 0.25 0.32 0.33 0.23 0.18 0.17 0.15 0.14 0.10 0.08 0.06 0.07 0.07 0.10 0.14 0.15 0.21 0.22 0.24 0.29 0.34 0.42 0.52 0.58 0.74
0.12 0.10 0.12 0.11 0.20 0.24 0.23 0.23 0.26 0.27 0.22 0.21 0.22 0.23 0.28 0.33 0.33 0.29 0.26 0.25 0.31 0.34 0.35 0.39 0.45 0.48 0.52 0.79 0.82 0.70 0.65 0.72 0.79 0.77 0.66 0.61 0.60 0.57 0.59 0.74 0.78 0.74 0.58 0.48 0.57 0.53 0.38 0.34 0.37 0.31 0.29 0.29 0.27 0.20 0.17 0.19 0.16 0.15 0.11 0.10 0.10 0.08 0.11 0.10 0.13 0.14 0.20 0.22 0.28 0.32 0.37 0.43 0.56 0.65
0.12 0.12 0.13 0.13 0.19 0.21 0.19 0.19 0.20 0.24 0.19 0.18 0.18 0.24 0.28 0.34 0.29 0.22 0.16 0.15 0.17 0.20 0.23 0.26 0.31 0.33 0.38 0.55 0.68 0.66 0.70 0.69 0.74 0.75 0.65 0.66 0.68 0.70 0.61 0.58 0.55 0.55 0.52 0.50 0.47 0.48 0.52 0.53 0.54 0.47 0.34 0.31 0.28 0.20 0.17 0.16 0.17 0.17 0.16 0.13 0.13 0.10 0.12 0.11 0.12 0.16 0.17 0.22 0.26 0.32 0.35 0.41 0.49 0.60
0.13 0.13 0.15 0.15 0.18 0.19 0.16 0.16 0.16 0.21 0.18 0.15 0.16 0.17 0.17 0.14 0.14 0.10 0.09 0.09 0.10 0.12 0.14 0.17 0.19 0.22 0.26 0.35 0.45 0.48 0.57 0.65 0.66 0.70 0.65 0.63 0.67 0.73 0.77 0.72 0.68 0.58 0.53 0.43 0.45 0.51 0.50 0.56 0.45 0.51 0.40 0.31 0.26 0.23 0.23 0.20 0.21 0.21 0.19 0.18 0.15 0.12 0.12 0.14 0.14 0.15 0.15 0.18 0.23 0.29 0.33 0.38 0.44 0.54
0.13 0.14 0.16 0.16 0.15 0.16 0.15 0.14 0.13 0.18 0.16 0.12 0.13 0.11 0.09 0.07 0.05 0.05 0.06 0.06 0.07 0.07 0.08 0.12 0.15 0.15 0.16 0.22 0.31 0.36 0.41 0.49 0.58 0.65 0.69 0.61 0.67 0.76 0.75 0.71 0.81 0.79 0.70 0.63 0.56 0.58 0.59 0.59 0.52 0.60 0.46 0.30 0.29 0.30 0.27 0.25 0.23 0.25 0.24 0.22 0.20 0.17 0.25 0.18 0.16 0.17 0.14 0.15 0.17 0.28 0.37 0.42 0.41 0.49
0.13 0.16 0.17 0.15 0.13 0.14 0.13 0.12 0.11 0.12 0.12 0.11 0.09 0.07 0.06 0.03 0.02 0.04 0.03 0.05 0.06 0.06 0.07 0.08 0.11 0.11 0.12 0.15 0.19 0.25 0.34 0.49 0.58 0.57 0.53 0.55 0.69 0.66 0.69 0.74 0.64 0.64 0.65 0.68 0.63 0.65 0.66 0.63 0.52 0.43 0.47 0.44 0.40 0.38 0.29 0.24 0.23 0.23 0.24 0.23 0.21 0.20 0.20 0.17 0.16 0.19 0.20 0.15 0.17 0.20 0.31 0.42 0.41 0.47
0.12 0.14 0.13 0.13 0.12 0.12 0.11 0.09 0.09 0.09 0.07 0.07 0.06 0.05 0.03 0.02 0.02 0.03 0.04 0.05 0.05 0.04 0.05 0.05 0.06 0.08 0.09 0.12 0.15 0.19 0.24 0.36 0.51 0.59 0.55 0.51 0.56 0.54 0.61 0.71 0.65 0.60 0.73 0.72 0.81 0.85 0.72 0.66 0.61 0.53 0.50 0.38 0.45 0.39 0.31 0.28 0.25 0.31 0.28 0.30 0.31 0.26 0.21 0.17 0.17 0.17 0.20 0.24 0.22 0.21 0.24 0.35 0.45 0.43
0.10 0.11 0.10 0.10 0.11 0.11 0.11 0.08 0.10 0.07 0.06 0.05 0.04 0.03 0.02 0.02 0.02 0.03 0.04 0.04 0.05 0.06 0.04 0.04 0.04 0.05 0.05 0.06 0.09 0.12 0.20 0.26 0.34 0.46 0.53 0.51 0.46 0.51 0.56 0.61 0.61 0.62 0.62 0.66 0.76 0.92 0.78 0.73 0.70 0.67 0.59 0.52 0.44 0.40 0.36 0.40 0.42 0.34 0.36 0.33 0.29 0.37 0.46 0.34 0.29 0.21 0.19 0.21 0.20 0.19 0.19 0.23 0.36 0.44
0.09 0.09 0.09 0.10 0.12 0.12 0.11 0.09 0.07 0.07 0.06 0.05 0.04 0.04 0.03 0.03 0.03 0.04 0.04 0.04 0.05 0.05 0.05 0.04 0.04 0.03 0.03 0.05 0.06 0.09 0.16 0.24 0.28 0.33 0.42 0.48 0.46 0.44 0.48 0.57 0.58 0.57 0.63 0.61 0.70 0.76 0.81 0.77 0.76 0.80 0.75 0.64 0.60 0.50 0.43 0.47 0.54 0.47 0.52 0.45 0.41 0.47 0.42 0.34 0.27 0.23 0.22 0.22 0.22 0.22 0.20 0.25 0.27 0.42
0.09 0.09 0.13 0.12 0.10 0.08 0.08 0.07 0.07 0.06 0.06 0.05 0.05 0.05 0.05 0.05 0.05 0.04 0.04 0.04 0.04 0.04 0.03 0.03 0.02 0.02 0.03 0.04 0.05 0.07 0.10 0.15 0.21 0.27 0.33 0.42 0.46 0.46 0.45 0.49 0.57 0.56 0.57 0.56 0.56 0.62 0.67 0.78 0.83 0.98 0.84 0.64 0.75 0.70 0.60 0.65 0.63 0.53 0.54 0.62 0.56 0.44 0.33 0.47 0.44 0.38 0.31 0.28 0.30 0.30 0.29 0.28 0.27 0.33
0.11 0.09 0.08 0.08 0.08 0.08 0.08 0.08 0.07 0.07 0.07 0.07 0.07 0.07 0.08 0.07 0.08 0.08 0.08 0.09 0.08 0.07 0.06 0.06 0.06 0.05 0.04 0.04 0.03 0.04 0.07 0.09 0.12 0.18 0.25 0.31 0.42 0.48 0.49 0.53 0.49 0.52 0.53 0.57 0.62 0.62 0.68 0.72 0.73 1.04 1.00 0.72 0.76 0.77 0.76 0.78 0.77 0.66 0.61 0.66 0.63 0.58 0.49 0.41 0.39 0.38 0.40 0.43 0.38 0.32 0.33 0.29 0.26 0.26
0.09 0.09 0.09 0.08 0.07 0.07 0.07 0.07 0.08 0.08 0.08 0.08 0.09 0.09 0.09 0.10 0.12 0.13 0.14 0.15 0.14 0.13 0.13 0.12 0.12 0.12 0.11 0.11 0.09 0.08 0.08 0.07 0.08 0.11 0.18 0.25 0.31 0.40 0.50 0.51 0.45 0.42 0.45 0.49 0.51 0.58 0.65 0.69 0.63 0.67 0.80 0.83 0.77 0.81 0.87 0.91 0.84 0.75 0.77 0.80 0.75 0.63 0.53 0.47 0.44 0.44 0.46 0.43 0.41 0.43 0.39 0.37 0.31 0.27
0.07 0.07 0.07 0.06 0.06 0.07 0.07 0.09 0.10 0.11 0.11 0.11 0.11 0.11 0.10 0.11 0.12 0.13 0.16 0.18 0.19 0.19 0.18 0.16 0.14 0.12 0.12 0.11 0.10 0.10 0.09 0.08 0.08 0.09 0.12 0.17 0.27 0.36 0.39 0.42 0.38 0.36 0.41 0.44 0.45 0.48 0.55 0.67 0.76 0.85 0.84 0.88 0.95 1.04 0.95 0.96 0.84 0.82 0.77 0.77 0.72 0.65 0.58 0.54 0.50 0.48 0.48 0.47 0.47 0.44 0.40 0.34 0.35 0.31
0.06 0.07 0.08 0.08 0.07 0.07 0.08 0.09 0.10 0.12 0.14 0.15 0.15 0.14 0.12 0.11 0.11 0.13 0.14 0.14 0.14 0.14 0.15 0.16 0.16 0.16 0.16 0.15 0.15 0.14 0.13 0.12 0.11 0.11 0.13 0.16 0.22 0.25 0.29 0.30 0.29 0.29 0.31 0.37 0.42 0.47 0.52 0.55 0.66 0.80 0.90 0.98 0.92 1.00 1.01 0.98 0.90 0.86 0.79 0.72 0.67 0.67 0.63 0.63 0.61 0.65 0.66 0.56 0.53 0.44 0.44 0.45 0.38 0.35
0.07 0.07 0.08 0.09 0.09 0.09 0.11 0.12 0.14 0.15 0.16 0.16 0.15 0.15 0.16 0.16 0.14 0.15 0.14 0.13 0.13 0.13 0.13 0.12 0.12 0.12 0.13 0.13 0.14 0.14 0.15 0.19 0.21 0.17 0.16 0.13 0.14 0.18 0.22 0.23 0.22 0.24 0.28 0.29 0.32 0.39 0.51 0.55 0.60 0.69 0.76 0.76 0.75 0.80 0.83 0.75 0.72 0.74 0.80 0.68 0.68 0.69 0.68 0.70 0.74 0.70 0.69 0.62 0.58 0.46 0.33 0.27 0.32 0.35
0.07 0.08 0.09 0.10 0.10 0.11 0.12 0.14 0.15 0.15 0.15 0.16 0.17 0.17 0.17 0.17 0.16 0.14 0.13 0.14 0.14 0.13 0.12 0.12 0.12 0.12 0.12 0.12 0.15 0.16 0.15 0.16 0.17 0.20 0.19 0.19 0.20 0.21 0.22 0.25 0.26 0.22 0.22 0.25 0.29 0.30 0.38 0.45 0.55 0.64 0.75 0.83 0.73 0.61 0.53 0.52 0.54 0.58 0.60 0.70 0.73 0.79 0.74 0.68 0.69 0.72 0.72 0.69 0.64 0.54 0.40 0.33 0.33 0.37
0.10 0.11 0.12 0.12 0.12 0.13 0.14 0.15 0.17 0.17 0.17 0.17 0.17 0.17 0.16 0.13 0.12 0.11 0.11 0.12 0.11 0.11 0.11 0.11 0.11 0.11 0.11 0.11 0.12 0.14 0.15 0.15 0.17 0.18 0.17 0.18 0.18 0.18 0.21 0.22 0.23 0.25 0.25 0.26 0.24 0.30 0.36 0.41 0.49 0.56 0.62 0.67 0.69 0.68 0.60 0.53 0.51 0.60 0.65 0.66 0.68 0.66 0.73 0.77 0.69 0.64 0.76 0.81 0.73 0.74 0.84 0.83 0.52 0.53
0.11 0.11 0.12 0.12 0.13 0.13 0.14 0.15 0.15 0.16 0.17 0.17 0.17 0.18 0.18 0.16 0.14 0.15 0.15 0.15 0.14 0.13 0.14 0.15 0.14 0.14 0.14 0.13 0.12 0.12 0.12 0.13 0.14 0.13 0.14 0.15 0.17 0.17 0.16 0.16 0.17 0.20 0.30 0.30 0.30 0.28 0.32 0.37 0.38 0.46 0.47 0.48 0.51 0.57 0.58 0.54 0.57 0.60 0.66 0.71 0.64 0.65 0.78 0.77 0.72 0.70 0.65 0.65 0.72 0.80 0.78 0.72 0.85 0.81
0.11 0.11 0.11 0.11 0.12 0.12 0.13 0.14 0.15 0.15 0.15 0.15 0.15 0.16 0.16 0.17 0.17 0.19 0.20 0.20 0.19 0.19 0.18 0.17 0.17 0.18 0.17 0.17 0.17 0.18 0.17 0.14 0.13 0.13 0.12 0.12 0.14 0.17 0.17 0.17 0.21 0.19 0.22 0.27 0.26 0.27 0.27 0.24 0.25 0.27 0.35 0.41 0.43 0.50 0.68 0.66 0.69 0.73 0.74 0.72 0.65 0.66 0.69 0.75 0.78 0.79 0.76 0.69 0.65 0.69 0.70 0.79 0.78 0.72
0.10 0.10 0.10 0.10 0.11 0.12 0.13 0.14 0.13 0.14 0.14 0.14 0.15 0.16 0.16 0.16 0.16 0.18 0.17 0.17 0.17 0.18 0.19 0.20 0.20 0.20 0.19 0.18 0.17 0.17 0.19 0.18 0.17 0.16 0.15 0.15 0.14 0.14 0.15 0.19 0.24 0.23 0.21 0.20 0.18 0.16 0.14 0.15 0.21 0.23 0.36 0.62 0.55 0.65 0.71 0.65 0.63 0.62 0.64 0.63 0.63 0.64 0.71 0.72 0.70 0.77 0.90 0.88 0.78 0.74 0.77 0.84 0.77 0.75
0.08 0.08 0.08 0.09 0.09 0.11 0.12 0.13 0.13 0.14 0.15 0.16 0.17 0.18 0.18 0.17 0.17 0.17 0.17 0.18 0.19 0.21 0.22 0.21 0.21 0.21 0.20 0.19 0.19 0.20 0.20 0.20 0.19 0.18 0.17 0.16 0.17 0.18 0.18 0.17 0.16 0.15 0.15 0.13 0.10 0.10 0.14 0.16 0.19 0.27 0.35 0.44 0.53 0.55 0.56 0.48 0.46 0.49 0.53 0.54 0.58 0.63 0.73 0.74 0.74 0.75 0.79 0.76 0.69 0.73 0.87 0.91 0.79 0.77
0.08 0.07 0.07 0.07 0.09 0.10 0.11 0.12 0.13 0.14 0.16 0.18 0.20 0.20 0.20 0.20 0.20 0.21 0.22 0.23 0.25 0.27 0.26 0.26 0.25 0.24 0.23 0.23 0.22 0.22 0.22 0.23 0.22 0.22 0.20 0.18 0.17 0.17 0.16 0.16 0.17 0.17 0.19 0.20 0.21 0.23 0.21 0.23 0.24 0.27 0.36 0.38 0.34 0.39 0.43 0.41 0.43 0.44 0.52 0.56 0.64 0.59 0.68 0.83 0.84 0.79 0.80 0.80 0.78 0.69 0.71 0.65 0.60 0.54
0.08 0.07 0.07 0.07 0.08 0.09 0.10 0.11 0.12 0.14 0.16 0.18 0.19 0.19 0.18 0.18 0.19 0.21 0.21 0.22 0.25 0.26 0.26 0.27 0.27 0.27 0.26 0.27 0.28 0.27 0.25 0.24 0.23 0.22 0.22 0.21 0.21 0.20 0.19 0.19 0.20 0.22 0.23 0.20 0.21 0.22 0.22 0.24 0.26 0.26 0.29 0.27 0.27 0.27 0.26 0.30 0.34 0.41 0.46 0.53 0.58 0.54 0.56 0.72 0.90 0.89 0.91 0.97 0.85 0.75 0.71 0.65 0.52 0.45